Year,Month,Day,Hour,Minute,Value (Times are PST for temperature in C)
2014,06,22,00,00,9.30
2014,06,22,00,01,9.30
2014,06,22,00,02,9.20
2014,06,22,00,03,9.20
2014,06,22,00,04,9.20
2014,06,22,00,05,9.10
2014,06,22,00,06,9.10
2014,06,22,00,07,9.10
2014,06,22,00,08,9.10
2014,06,22,00,09,9.10
2014,06,22,00,10,9.00
2014,06,22,00,11,9.00
2014,06,22,00,12,9.00
2014,06,22,00,13,9.00
2014,06,22,00,14,9.00
2014,06,22,00,15,8.90
2014,06,22,00,16,8.90
2014,06,22,00,17,8.90
2014,06,22,00,18,8.90
2014,06,22,00,19,8.90
2014,06,22,00,20,8.90
2014,06,22,00,21,8.90
2014,06,22,00,22,8.90
2014,06,22,00,23,8.90
2014,06,22,00,24,8.90
2014,06,22,00,25,8.90
2014,06,22,00,26,8.90
2014,06,22,00,27,8.90
2014,06,22,00,28,8.90
2014,06,22,00,29,8.90
2014,06,22,00,30,8.80
2014,06,22,00,31,8.80
2014,06,22,00,32,8.80
2014,06,22,00,33,8.80
2014,06,22,00,34,8.80
2014,06,22,00,35,8.80
2014,06,22,00,36,8.80
2014,06,22,00,37,8.80
2014,06,22,00,38,8.80
2014,06,22,00,39,8.80
2014,06,22,00,40,8.80
2014,06,22,00,41,8.70
2014,06,22,00,42,8.70
2014,06,22,00,43,8.70
2014,06,22,00,44,8.70
2014,06,22,00,45,8.70
2014,06,22,00,46,8.60
2014,06,22,00,47,8.60
2014,06,22,00,48,8.60
2014,06,22,00,49,8.60
2014,06,22,00,50,8.60
2014,06,22,00,51,8.60
2014,06,22,00,52,8.60
2014,06,22,00,53,8.60
2014,06,22,00,54,8.60
2014,06,22,00,55,8.60
2014,06,22,00,56,8.50
2014,06,22,00,57,8.50
2014,06,22,00,58,8.50
2014,06,22,00,59,8.50
2014,06,22,01,00,8.50
2014,06,22,01,01,8.50
2014,06,22,01,02,8.40
2014,06,22,01,03,8.40
2014,06,22,01,04,8.40
2014,06,22,01,05,8.40
2014,06,22,01,06,8.40
2014,06,22,01,07,8.30
2014,06,22,01,08,8.30
2014,06,22,01,09,8.30
2014,06,22,01,10,8.30
2014,06,22,01,11,8.30
2014,06,22,01,12,8.20
2014,06,22,01,13,8.20
2014,06,22,01,14,8.20
2014,06,22,01,15,8.20
2014,06,22,01,16,8.20
2014,06,22,01,17,8.20
2014,06,22,01,18,8.20
2014,06,22,01,19,8.20
2014,06,22,01,20,8.20
2014,06,22,01,21,8.10
2014,06,22,01,22,8.10
2014,06,22,01,23,8.10
2014,06,22,01,24,8.10
2014,06,22,01,25,8.10
2014,06,22,01,26,8.10
2014,06,22,01,27,8.10
2014,06,22,01,28,8.10
2014,06,22,01,29,8.10
2014,06,22,01,30,8.10
2014,06,22,01,31,8.10
2014,06,22,01,32,8.10
2014,06,22,01,33,8.10
2014,06,22,01,34,8.10
2014,06,22,01,35,8.10
2014,06,22,01,36,8.10
2014,06,22,01,37,8.10
2014,06,22,01,38,8.00
2014,06,22,01,39,8.10
2014,06,22,01,40,8.00
2014,06,22,01,41,8.00
2014,06,22,01,42,8.00
2014,06,22,01,43,8.00
2014,06,22,01,44,8.00
2014,06,22,01,45,8.00
2014,06,22,01,46,8.00
2014,06,22,01,47,8.00
2014,06,22,01,48,8.00
2014,06,22,01,49,7.90
2014,06,22,01,50,7.90
2014,06,22,01,51,7.90
2014,06,22,01,52,7.90
2014,06,22,01,53,7.90
2014,06,22,01,54,7.90
2014,06,22,01,55,7.90
2014,06,22,01,56,7.90
2014,06,22,01,57,7.90
2014,06,22,01,58,7.90
2014,06,22,01,59,7.90
2014,06,22,02,00,7.90
2014,06,22,02,01,7.90
2014,06,22,02,02,7.90
2014,06,22,02,03,7.90
2014,06,22,02,04,7.90
2014,06,22,02,05,7.90
2014,06,22,02,06,7.80
2014,06,22,02,07,7.80
2014,06,22,02,08,7.80
2014,06,22,02,09,7.80
2014,06,22,02,10,7.80
2014,06,22,02,11,7.80
2014,06,22,02,12,7.80
2014,06,22,02,13,7.80
2014,06,22,02,14,7.80
2014,06,22,02,15,7.80
2014,06,22,02,16,7.70
2014,06,22,02,17,7.70
2014,06,22,02,18,7.70
2014,06,22,02,19,7.70
2014,06,22,02,20,7.70
2014,06,22,02,21,7.70
2014,06,22,02,22,7.70
2014,06,22,02,23,7.70
2014,06,22,02,24,7.70
2014,06,22,02,25,7.60
2014,06,22,02,26,7.60
2014,06,22,02,27,7.60
2014,06,22,02,28,7.60
2014,06,22,02,29,7.60
2014,06,22,02,30,7.60
2014,06,22,02,31,7.60
2014,06,22,02,32,7.60
2014,06,22,02,33,7.60
2014,06,22,02,34,7.60
2014,06,22,02,35,7.60
2014,06,22,02,36,7.60
2014,06,22,02,37,7.50
2014,06,22,02,38,7.50
2014,06,22,02,39,7.50
2014,06,22,02,40,7.50
2014,06,22,02,41,7.50
2014,06,22,02,42,7.50
2014,06,22,02,43,7.40
2014,06,22,02,44,7.40
2014,06,22,02,45,7.40
2014,06,22,02,46,7.40
2014,06,22,02,47,7.40
2014,06,22,02,48,7.40
2014,06,22,02,49,7.40
2014,06,22,02,50,7.30
2014,06,22,02,51,7.30
2014,06,22,02,52,7.30
2014,06,22,02,53,7.30
2014,06,22,02,54,7.30
2014,06,22,02,55,7.30
2014,06,22,02,56,7.30
2014,06,22,02,57,7.30
2014,06,22,02,58,7.20
2014,06,22,02,59,7.20
2014,06,22,03,00,7.20
2014,06,22,03,01,7.20
2014,06,22,03,02,7.20
2014,06,22,03,03,7.20
2014,06,22,03,04,7.20
2014,06,22,03,05,7.20
2014,06,22,03,06,7.20
2014,06,22,03,07,7.20
2014,06,22,03,08,7.20
2014,06,22,03,09,7.20
2014,06,22,03,10,7.20
2014,06,22,03,11,7.20
2014,06,22,03,12,7.20
2014,06,22,03,13,7.20
2014,06,22,03,14,7.20
2014,06,22,03,15,7.20
2014,06,22,03,16,7.20
2014,06,22,03,17,7.20
2014,06,22,03,18,7.20
2014,06,22,03,19,7.20
2014,06,22,03,20,7.20
2014,06,22,03,21,7.20
2014,06,22,03,22,7.20
2014,06,22,03,23,7.20
2014,06,22,03,24,7.20
2014,06,22,03,25,7.20
2014,06,22,03,26,7.20
2014,06,22,03,27,7.20
2014,06,22,03,28,7.20
2014,06,22,03,29,7.20
2014,06,22,03,30,7.20
2014,06,22,03,31,7.20
2014,06,22,03,32,7.20
2014,06,22,03,33,7.20
2014,06,22,03,34,7.20
2014,06,22,03,35,7.20
2014,06,22,03,36,7.20
2014,06,22,03,37,7.20
2014,06,22,03,38,7.20
2014,06,22,03,39,7.20
2014,06,22,03,40,7.20
2014,06,22,03,41,7.20
2014,06,22,03,42,7.20
2014,06,22,03,43,7.20
2014,06,22,03,44,7.20
2014,06,22,03,45,7.20
2014,06,22,03,46,7.20
2014,06,22,03,47,7.20
2014,06,22,03,48,7.20
2014,06,22,03,49,7.20
2014,06,22,03,50,7.20
2014,06,22,03,51,7.20
2014,06,22,03,52,7.20
2014,06,22,03,53,7.20
2014,06,22,03,54,7.10
2014,06,22,03,55,7.10
2014,06,22,03,56,7.10
2014,06,22,03,57,7.10
2014,06,22,03,58,7.10
2014,06,22,03,59,7.10
2014,06,22,04,00,7.10
2014,06,22,04,01,7.10
2014,06,22,04,02,7.10
2014,06,22,04,03,7.10
2014,06,22,04,04,7.10
2014,06,22,04,05,7.00
2014,06,22,04,06,7.00
2014,06,22,04,07,7.00
2014,06,22,04,08,7.00
2014,06,22,04,09,7.00
2014,06,22,04,10,7.00
2014,06,22,04,11,7.00
2014,06,22,04,12,7.00
2014,06,22,04,13,7.00
2014,06,22,04,14,6.90
2014,06,22,04,15,6.90
2014,06,22,04,16,6.90
2014,06,22,04,17,6.90
2014,06,22,04,18,6.90
2014,06,22,04,19,6.90
2014,06,22,04,20,6.90
2014,06,22,04,21,6.90
2014,06,22,04,22,6.90
2014,06,22,04,23,6.80
2014,06,22,04,24,6.80
2014,06,22,04,25,6.80
2014,06,22,04,26,6.80
2014,06,22,04,27,6.80
2014,06,22,04,28,6.80
2014,06,22,04,29,6.80
2014,06,22,04,30,6.80
2014,06,22,04,31,6.70
2014,06,22,04,32,6.70
2014,06,22,04,33,6.70
2014,06,22,04,34,6.70
2014,06,22,04,35,6.70
2014,06,22,04,36,6.70
2014,06,22,04,37,6.70
2014,06,22,04,38,6.70
2014,06,22,04,39,6.70
2014,06,22,04,40,6.70
2014,06,22,04,41,6.70
2014,06,22,04,42,6.60
2014,06,22,04,43,6.70
2014,06,22,04,44,6.70
2014,06,22,04,45,6.70
2014,06,22,04,46,6.70
2014,06,22,04,47,6.70
2014,06,22,04,48,6.70
2014,06,22,04,49,6.60
2014,06,22,04,50,6.60
2014,06,22,04,51,6.60
2014,06,22,04,52,6.60
2014,06,22,04,53,6.60
2014,06,22,04,54,6.60
2014,06,22,04,55,6.60
2014,06,22,04,56,6.60
2014,06,22,04,57,6.60
2014,06,22,04,58,6.60
2014,06,22,04,59,6.60
2014,06,22,05,00,6.60
2014,06,22,05,01,6.60
2014,06,22,05,02,6.60
2014,06,22,05,03,6.60
2014,06,22,05,04,6.60
2014,06,22,05,05,6.60
2014,06,22,05,06,6.60
2014,06,22,05,07,6.60
2014,06,22,05,08,6.60
2014,06,22,05,09,6.50
2014,06,22,05,10,6.50
2014,06,22,05,11,6.50
2014,06,22,05,12,6.40
2014,06,22,05,13,6.40
2014,06,22,05,14,6.40
2014,06,22,05,15,6.40
2014,06,22,05,16,6.40
2014,06,22,05,17,6.40
2014,06,22,05,18,6.40
2014,06,22,05,19,6.40
2014,06,22,05,20,6.40
2014,06,22,05,21,6.40
2014,06,22,05,22,6.40
2014,06,22,05,23,6.40
2014,06,22,05,24,6.40
2014,06,22,05,25,6.40
2014,06,22,05,26,6.40
2014,06,22,05,27,6.40
2014,06,22,05,28,6.40
2014,06,22,05,29,6.40
2014,06,22,05,30,6.40
2014,06,22,05,31,6.40
2014,06,22,05,32,6.40
2014,06,22,05,33,6.40
2014,06,22,05,34,6.40
2014,06,22,05,35,6.40
2014,06,22,05,36,6.40
2014,06,22,05,37,6.40
2014,06,22,05,38,6.40
2014,06,22,05,39,6.40
2014,06,22,05,40,6.40
2014,06,22,05,41,6.40
2014,06,22,05,42,6.40
2014,06,22,05,43,6.40
2014,06,22,05,44,6.40
2014,06,22,05,45,6.50
2014,06,22,05,46,6.50
2014,06,22,05,47,6.60
2014,06,22,05,48,6.60
2014,06,22,05,49,6.60
2014,06,22,05,50,6.60
2014,06,22,05,51,6.70
2014,06,22,05,52,6.70
2014,06,22,05,53,6.70
2014,06,22,05,54,6.70
2014,06,22,05,55,6.80
2014,06,22,05,56,6.80
2014,06,22,05,57,6.80
2014,06,22,05,58,6.90
2014,06,22,05,59,6.90
2014,06,22,06,00,6.90
2014,06,22,06,01,7.00
2014,06,22,06,02,7.10
2014,06,22,06,03,7.10
2014,06,22,06,04,7.10
2014,06,22,06,05,7.20
2014,06,22,06,06,7.20
2014,06,22,06,07,7.20
2014,06,22,06,08,7.30
2014,06,22,06,09,7.30
2014,06,22,06,10,7.30
2014,06,22,06,11,7.40
2014,06,22,06,12,7.50
2014,06,22,06,13,7.50
2014,06,22,06,14,7.70
2014,06,22,06,15,7.80
2014,06,22,06,16,7.80
2014,06,22,06,17,7.90
2014,06,22,06,18,8.00
2014,06,22,06,19,8.10
2014,06,22,06,20,8.10
2014,06,22,06,21,8.10
2014,06,22,06,22,8.10
2014,06,22,06,23,8.20
2014,06,22,06,24,8.20
2014,06,22,06,25,8.20
2014,06,22,06,26,8.20
2014,06,22,06,27,8.20
2014,06,22,06,28,8.20
2014,06,22,06,29,8.20
2014,06,22,06,30,8.20
2014,06,22,06,31,8.30
2014,06,22,06,32,8.30
2014,06,22,06,33,8.30
2014,06,22,06,34,8.30
2014,06,22,06,35,8.40
2014,06,22,06,36,8.50
2014,06,22,06,37,8.50
2014,06,22,06,38,8.60
2014,06,22,06,39,8.70
2014,06,22,06,40,8.80
2014,06,22,06,41,8.80
2014,06,22,06,42,8.90
2014,06,22,06,43,9.00
2014,06,22,06,44,9.10
2014,06,22,06,45,9.20
2014,06,22,06,46,9.30
2014,06,22,06,47,9.40
2014,06,22,06,48,9.50
2014,06,22,06,49,9.70
2014,06,22,06,50,9.80
2014,06,22,06,51,9.90
2014,06,22,06,52,10.00
2014,06,22,06,53,10.10
2014,06,22,06,54,10.30
2014,06,22,06,55,10.40
2014,06,22,06,56,10.60
2014,06,22,06,57,10.70
2014,06,22,06,58,10.80
2014,06,22,06,59,11.00
2014,06,22,07,00,11.10
2014,06,22,07,01,11.20
2014,06,22,07,02,11.30
2014,06,22,07,03,11.50
2014,06,22,07,04,11.60
2014,06,22,07,05,11.60
2014,06,22,07,06,11.70
2014,06,22,07,07,11.80
2014,06,22,07,08,11.80
2014,06,22,07,09,11.80
2014,06,22,07,10,11.80
2014,06,22,07,11,11.80
2014,06,22,07,12,11.80
2014,06,22,07,13,11.80
2014,06,22,07,14,11.80
2014,06,22,07,15,11.80
2014,06,22,07,16,11.80
2014,06,22,07,17,11.80
2014,06,22,07,18,11.80
2014,06,22,07,19,11.80
2014,06,22,07,20,11.80
2014,06,22,07,21,11.80
2014,06,22,07,22,11.80
2014,06,22,07,23,11.80
2014,06,22,07,24,11.80
2014,06,22,07,25,11.80
2014,06,22,07,26,11.80
2014,06,22,07,27,11.80
2014,06,22,07,28,11.80
2014,06,22,07,29,11.80
2014,06,22,07,30,11.80
2014,06,22,07,31,11.80
2014,06,22,07,32,11.80
2014,06,22,07,33,11.80
2014,06,22,07,34,11.80
2014,06,22,07,35,11.90
2014,06,22,07,36,11.90
2014,06,22,07,37,11.90
2014,06,22,07,38,11.90
2014,06,22,07,39,12.00
2014,06,22,07,40,12.00
2014,06,22,07,41,12.10
2014,06,22,07,42,12.10
2014,06,22,07,43,12.20
2014,06,22,07,44,12.20
2014,06,22,07,45,12.20
2014,06,22,07,46,12.20
2014,06,22,07,47,12.20
2014,06,22,07,48,12.20
2014,06,22,07,49,12.20
2014,06,22,07,50,12.20
2014,06,22,07,51,12.20
2014,06,22,07,52,12.30
2014,06,22,07,53,12.30
2014,06,22,07,54,12.30
2014,06,22,07,55,12.30
2014,06,22,07,56,12.20
2014,06,22,07,57,12.20
2014,06,22,07,58,12.10
2014,06,22,07,59,12.10
2014,06,22,08,00,12.10
2014,06,22,08,01,12.10
2014,06,22,08,02,12.20
2014,06,22,08,03,12.20
2014,06,22,08,04,12.20
2014,06,22,08,05,12.20
2014,06,22,08,06,12.20
2014,06,22,08,07,12.20
2014,06,22,08,08,12.20
2014,06,22,08,09,12.20
2014,06,22,08,10,12.20
2014,06,22,08,11,12.20
2014,06,22,08,12,12.10
2014,06,22,08,13,12.10
2014,06,22,08,14,12.10
2014,06,22,08,15,12.10
2014,06,22,08,16,12.10
2014,06,22,08,17,12.10
2014,06,22,08,18,12.10
2014,06,22,08,19,12.10
2014,06,22,08,20,12.10
2014,06,22,08,21,12.10
2014,06,22,08,22,12.10
2014,06,22,08,23,12.10
2014,06,22,08,24,12.10
2014,06,22,08,25,12.20
2014,06,22,08,26,12.20
2014,06,22,08,27,12.30
2014,06,22,08,28,12.30
2014,06,22,08,29,12.40
2014,06,22,08,30,12.40
2014,06,22,08,31,12.50
2014,06,22,08,32,12.60
2014,06,22,08,33,12.60
2014,06,22,08,34,12.70
2014,06,22,08,35,12.80
2014,06,22,08,36,12.80
2014,06,22,08,37,12.80
2014,06,22,08,38,12.80
2014,06,22,08,39,12.80
2014,06,22,08,40,12.80
2014,06,22,08,41,12.80
2014,06,22,08,42,12.80
2014,06,22,08,43,12.80
2014,06,22,08,44,12.80
2014,06,22,08,45,12.80
2014,06,22,08,46,12.80
2014,06,22,08,47,12.80
2014,06,22,08,48,12.80
2014,06,22,08,49,12.90
2014,06,22,08,50,12.90
2014,06,22,08,51,13.00
2014,06,22,08,52,13.10
2014,06,22,08,53,13.20
2014,06,22,08,54,13.20
2014,06,22,08,55,13.30
2014,06,22,08,56,13.30
2014,06,22,08,57,13.40
2014,06,22,08,58,13.40
2014,06,22,08,59,13.50
2014,06,22,09,00,13.60
2014,06,22,09,01,13.60
2014,06,22,09,02,13.70
2014,06,22,09,03,13.80
2014,06,22,09,04,13.80
2014,06,22,09,05,13.90
2014,06,22,09,06,13.90
2014,06,22,09,07,13.90
2014,06,22,09,08,13.90
2014,06,22,09,09,13.90
2014,06,22,09,10,13.90
2014,06,22,09,11,13.90
2014,06,22,09,12,13.90
2014,06,22,09,13,14.00
2014,06,22,09,14,14.00
2014,06,22,09,15,14.00
2014,06,22,09,16,14.10
2014,06,22,09,17,14.20
2014,06,22,09,18,14.20
2014,06,22,09,19,14.20
2014,06,22,09,20,14.30
2014,06,22,09,21,14.30
2014,06,22,09,22,14.40
2014,06,22,09,23,14.40
2014,06,22,09,24,14.40
2014,06,22,09,25,14.50
2014,06,22,09,26,14.50
2014,06,22,09,27,14.50
2014,06,22,09,28,14.50
2014,06,22,09,29,14.50
2014,06,22,09,30,14.60
2014,06,22,09,31,14.60
2014,06,22,09,32,14.70
2014,06,22,09,33,14.70
2014,06,22,09,34,14.70
2014,06,22,09,35,14.70
2014,06,22,09,36,14.80
2014,06,22,09,37,14.80
2014,06,22,09,38,14.80
2014,06,22,09,39,14.80
2014,06,22,09,40,14.80
2014,06,22,09,41,14.70
2014,06,22,09,42,14.60
2014,06,22,09,43,14.60
2014,06,22,09,44,14.50
2014,06,22,09,45,14.40
2014,06,22,09,46,14.30
2014,06,22,09,47,14.20
2014,06,22,09,48,14.10
2014,06,22,09,49,14.10
2014,06,22,09,50,14.00
2014,06,22,09,51,13.90
2014,06,22,09,52,13.90
2014,06,22,09,53,13.80
2014,06,22,09,54,13.80
2014,06,22,09,55,13.80
2014,06,22,09,56,13.70
2014,06,22,09,57,13.60
2014,06,22,09,58,13.50
2014,06,22,09,59,13.40
2014,06,22,10,00,13.30
2014,06,22,10,01,13.20
2014,06,22,10,02,13.20
2014,06,22,10,03,13.20
2014,06,22,10,04,13.10
2014,06,22,10,05,13.10
2014,06,22,10,06,13.10
2014,06,22,10,07,13.20
2014,06,22,10,08,13.20
2014,06,22,10,09,13.20
2014,06,22,10,10,13.20
2014,06,22,10,11,13.20
2014,06,22,10,12,13.30
2014,06,22,10,13,13.30
2014,06,22,10,14,13.40
2014,06,22,10,15,13.40
2014,06,22,10,16,13.50
2014,06,22,10,17,13.60
2014,06,22,10,18,13.60
2014,06,22,10,19,13.60
2014,06,22,10,20,13.60
2014,06,22,10,21,13.70
2014,06,22,10,22,13.60
2014,06,22,10,23,13.60
2014,06,22,10,24,13.60
2014,06,22,10,25,13.60
2014,06,22,10,26,13.50
2014,06,22,10,27,13.50
2014,06,22,10,28,13.40
2014,06,22,10,29,13.40
2014,06,22,10,30,13.30
2014,06,22,10,31,13.30
2014,06,22,10,32,13.30
2014,06,22,10,33,13.30
2014,06,22,10,34,13.30
2014,06,22,10,35,13.40
2014,06,22,10,36,13.30
2014,06,22,10,37,13.30
2014,06,22,10,38,13.30
2014,06,22,10,39,13.30
2014,06,22,10,40,13.30
2014,06,22,10,41,13.20
2014,06,22,10,42,13.20
2014,06,22,10,43,13.20
2014,06,22,10,44,13.20
2014,06,22,10,45,13.20
2014,06,22,10,46,13.20
2014,06,22,10,47,13.30
2014,06,22,10,48,13.30
2014,06,22,10,49,13.30
2014,06,22,10,50,13.30
2014,06,22,10,51,13.30
2014,06,22,10,52,13.30
2014,06,22,10,53,13.30
2014,06,22,10,54,13.40
2014,06,22,10,55,13.40
2014,06,22,10,56,13.40
2014,06,22,10,57,13.50
2014,06,22,10,58,13.50
2014,06,22,10,59,13.60
2014,06,22,11,00,13.70
2014,06,22,11,01,13.80
2014,06,22,11,02,13.80
2014,06,22,11,03,13.90
2014,06,22,11,04,14.00
2014,06,22,11,05,14.10
2014,06,22,11,06,14.20
2014,06,22,11,07,14.30
2014,06,22,11,08,14.50
2014,06,22,11,09,14.60
2014,06,22,11,10,14.70
2014,06,22,11,11,14.80
2014,06,22,11,12,14.80
2014,06,22,11,13,14.90
2014,06,22,11,14,15.00
2014,06,22,11,15,15.00
2014,06,22,11,16,15.10
2014,06,22,11,17,15.20
2014,06,22,11,18,15.20
2014,06,22,11,19,15.20
2014,06,22,11,20,15.20
2014,06,22,11,21,15.20
2014,06,22,11,22,15.10
2014,06,22,11,23,15.10
2014,06,22,11,24,15.10
2014,06,22,11,25,15.20
2014,06,22,11,26,15.30
2014,06,22,11,27,15.40
2014,06,22,11,28,15.40
2014,06,22,11,29,15.50
2014,06,22,11,30,15.60
2014,06,22,11,31,15.70
2014,06,22,11,32,15.70
2014,06,22,11,33,15.70
2014,06,22,11,34,15.80
2014,06,22,11,35,15.70
2014,06,22,11,36,15.70
2014,06,22,11,37,15.70
2014,06,22,11,38,15.80
2014,06,22,11,39,15.80
2014,06,22,11,40,15.90
2014,06,22,11,41,16.00
2014,06,22,11,42,16.20
2014,06,22,11,43,16.30
2014,06,22,11,44,16.40
2014,06,22,11,45,16.50
2014,06,22,11,46,16.60
2014,06,22,11,47,16.80
2014,06,22,11,48,16.90
2014,06,22,11,49,17.10
2014,06,22,11,50,17.20
2014,06,22,11,51,17.40
2014,06,22,11,52,17.50
2014,06,22,11,53,17.60
2014,06,22,11,54,17.60
2014,06,22,11,55,17.50
2014,06,22,11,56,17.40
2014,06,22,11,57,17.20
2014,06,22,11,58,17.10
2014,06,22,11,59,17.00
2014,06,22,12,00,17.00
2014,06,22,12,01,16.80
2014,06,22,12,02,16.70
2014,06,22,12,03,16.70
2014,06,22,12,04,16.60
2014,06,22,12,05,16.60
2014,06,22,12,06,16.50
2014,06,22,12,07,16.50
2014,06,22,12,08,16.50
2014,06,22,12,09,16.50
2014,06,22,12,10,16.60
2014,06,22,12,11,16.70
2014,06,22,12,12,16.80
2014,06,22,12,13,16.80
2014,06,22,12,14,16.80
2014,06,22,12,15,16.80
2014,06,22,12,16,16.70
2014,06,22,12,17,16.70
2014,06,22,12,18,16.70
2014,06,22,12,19,16.70
2014,06,22,12,20,16.70
2014,06,22,12,21,16.80
2014,06,22,12,22,16.90
2014,06,22,12,23,16.90
2014,06,22,12,24,16.90
2014,06,22,12,25,17.00
2014,06,22,12,26,17.10
2014,06,22,12,27,17.20
2014,06,22,12,28,17.30
2014,06,22,12,29,17.30
2014,06,22,12,30,17.40
2014,06,22,12,31,17.50
2014,06,22,12,32,17.60
2014,06,22,12,33,17.60
2014,06,22,12,34,17.60
2014,06,22,12,35,17.70
2014,06,22,12,36,17.70
2014,06,22,12,37,17.80
2014,06,22,12,38,17.80
2014,06,22,12,39,17.80
2014,06,22,12,40,17.90
2014,06,22,12,41,18.00
2014,06,22,12,42,18.10
2014,06,22,12,43,18.10
2014,06,22,12,44,18.00
2014,06,22,12,45,17.90
2014,06,22,12,46,17.90
2014,06,22,12,47,17.80
2014,06,22,12,48,17.70
2014,06,22,12,49,17.70
2014,06,22,12,50,17.50
2014,06,22,12,51,17.50
2014,06,22,12,52,17.40
2014,06,22,12,53,17.40
2014,06,22,12,54,17.30
2014,06,22,12,55,17.40
2014,06,22,12,56,17.40
2014,06,22,12,57,17.50
2014,06,22,12,58,17.60
2014,06,22,12,59,17.60
2014,06,22,13,00,17.50
2014,06,22,13,01,17.30
2014,06,22,13,02,17.30
2014,06,22,13,03,17.20
2014,06,22,13,04,17.20
2014,06,22,13,05,17.10
2014,06,22,13,06,17.00
2014,06,22,13,07,17.00
2014,06,22,13,08,16.90
2014,06,22,13,09,16.90
2014,06,22,13,10,16.80
2014,06,22,13,11,16.80
2014,06,22,13,12,16.80
2014,06,22,13,13,16.90
2014,06,22,13,14,16.90
2014,06,22,13,15,16.90
2014,06,22,13,16,16.90
2014,06,22,13,17,16.90
2014,06,22,13,18,16.90
2014,06,22,13,19,16.90
2014,06,22,13,20,16.90
2014,06,22,13,21,16.80
2014,06,22,13,22,16.80
2014,06,22,13,23,16.80
2014,06,22,13,24,16.80
2014,06,22,13,25,16.90
2014,06,22,13,26,16.90
2014,06,22,13,27,17.00
2014,06,22,13,28,17.10
2014,06,22,13,29,17.10
2014,06,22,13,30,17.10
2014,06,22,13,31,17.10
2014,06,22,13,32,17.10
2014,06,22,13,33,17.10
2014,06,22,13,34,17.20
2014,06,22,13,35,17.20
2014,06,22,13,36,17.20
2014,06,22,13,37,17.20
2014,06,22,13,38,17.30
2014,06,22,13,39,17.50
2014,06,22,13,40,17.60
2014,06,22,13,41,17.70
2014,06,22,13,42,17.80
2014,06,22,13,43,17.90
2014,06,22,13,44,18.00
2014,06,22,13,45,18.00
2014,06,22,13,46,18.00
2014,06,22,13,47,18.00
2014,06,22,13,48,18.00
2014,06,22,13,49,18.00
2014,06,22,13,50,18.10
2014,06,22,13,51,18.00
2014,06,22,13,52,17.90
2014,06,22,13,53,17.80
2014,06,22,13,54,17.70
2014,06,22,13,55,17.50
2014,06,22,13,56,17.30
2014,06,22,13,57,17.10
2014,06,22,13,58,17.00
2014,06,22,13,59,16.80
2014,06,22,14,00,16.80
2014,06,22,14,01,16.70
2014,06,22,14,02,16.60
2014,06,22,14,03,16.50
2014,06,22,14,04,16.40
2014,06,22,14,05,16.30
2014,06,22,14,06,16.10
2014,06,22,14,07,16.00
2014,06,22,14,08,15.90
2014,06,22,14,09,15.70
2014,06,22,14,10,15.70
2014,06,22,14,11,15.60
2014,06,22,14,12,15.60
2014,06,22,14,13,15.50
2014,06,22,14,14,15.50
2014,06,22,14,15,15.50
2014,06,22,14,16,15.50
2014,06,22,14,17,15.50
2014,06,22,14,18,15.50
2014,06,22,14,19,15.50
2014,06,22,14,20,15.60
2014,06,22,14,21,15.70
2014,06,22,14,22,15.80
2014,06,22,14,23,15.90
2014,06,22,14,24,15.90
2014,06,22,14,25,16.00
2014,06,22,14,26,16.00
2014,06,22,14,27,16.00
2014,06,22,14,28,16.10
2014,06,22,14,29,16.10
2014,06,22,14,30,16.20
2014,06,22,14,31,16.40
2014,06,22,14,32,16.50
2014,06,22,14,33,16.50
2014,06,22,14,34,16.60
2014,06,22,14,35,16.60
2014,06,22,14,36,16.60
2014,06,22,14,37,16.50
2014,06,22,14,38,16.50
2014,06,22,14,39,16.50
2014,06,22,14,40,16.50
2014,06,22,14,41,16.60
2014,06,22,14,42,16.60
2014,06,22,14,43,16.50
2014,06,22,14,44,16.60
2014,06,22,14,45,16.70
2014,06,22,14,46,16.70
2014,06,22,14,47,16.80
2014,06,22,14,48,16.80
2014,06,22,14,49,16.90
2014,06,22,14,50,16.90
2014,06,22,14,51,17.00
2014,06,22,14,52,17.10
2014,06,22,14,53,17.00
2014,06,22,14,54,17.00
2014,06,22,14,55,17.10
2014,06,22,14,56,17.10
2014,06,22,14,57,17.10
2014,06,22,14,58,17.10
2014,06,22,14,59,17.10
2014,06,22,15,00,17.00
2014,06,22,15,01,17.10
2014,06,22,15,02,17.20
2014,06,22,15,03,17.20
2014,06,22,15,04,17.20
2014,06,22,15,05,17.30
2014,06,22,15,06,17.30
2014,06,22,15,07,17.20
2014,06,22,15,08,17.20
2014,06,22,15,09,17.20
2014,06,22,15,10,17.20
2014,06,22,15,11,17.20
2014,06,22,15,12,17.30
2014,06,22,15,13,17.30
2014,06,22,15,14,17.30
2014,06,22,15,15,17.30
2014,06,22,15,16,17.40
2014,06,22,15,17,17.40
2014,06,22,15,18,17.50
2014,06,22,15,19,17.50
2014,06,22,15,20,17.60
2014,06,22,15,21,17.60
2014,06,22,15,22,17.60
2014,06,22,15,23,17.60
2014,06,22,15,24,17.60
2014,06,22,15,25,17.60
2014,06,22,15,26,17.60
2014,06,22,15,27,17.50
2014,06,22,15,28,17.40
2014,06,22,15,29,17.40
2014,06,22,15,30,17.30
2014,06,22,15,31,17.20
2014,06,22,15,32,17.10
2014,06,22,15,33,17.00
2014,06,22,15,34,17.00
2014,06,22,15,35,16.90
2014,06,22,15,36,16.80
2014,06,22,15,37,16.80
2014,06,22,15,38,16.80
2014,06,22,15,39,16.90
2014,06,22,15,40,17.00
2014,06,22,15,41,17.10
2014,06,22,15,42,17.20
2014,06,22,15,43,17.20
2014,06,22,15,44,17.40
2014,06,22,15,45,17.50
2014,06,22,15,46,17.60
2014,06,22,15,47,17.60
2014,06,22,15,48,17.60
2014,06,22,15,49,17.60
2014,06,22,15,50,17.60
2014,06,22,15,51,17.60
2014,06,22,15,52,17.60
2014,06,22,15,53,17.60
2014,06,22,15,54,17.50
2014,06,22,15,55,17.50
2014,06,22,15,56,17.40
2014,06,22,15,57,17.50
2014,06,22,15,58,17.50
2014,06,22,15,59,17.50
2014,06,22,16,00,17.50
2014,06,22,16,01,17.40
2014,06,22,16,02,17.40
2014,06,22,16,03,17.40
2014,06,22,16,04,17.40
2014,06,22,16,05,17.40
2014,06,22,16,06,17.40
2014,06,22,16,07,17.40
2014,06,22,16,08,17.50
2014,06,22,16,09,17.50
2014,06,22,16,10,17.60
2014,06,22,16,11,17.70
2014,06,22,16,12,17.70
2014,06,22,16,13,17.80
2014,06,22,16,14,17.80
2014,06,22,16,15,17.90
2014,06,22,16,16,17.90
2014,06,22,16,17,18.00
2014,06,22,16,18,18.00
2014,06,22,16,19,18.00
2014,06,22,16,20,18.00
2014,06,22,16,21,18.00
2014,06,22,16,22,17.90
2014,06,22,16,23,17.90
2014,06,22,16,24,17.90
2014,06,22,16,25,17.90
2014,06,22,16,26,18.00
2014,06,22,16,27,18.00
2014,06,22,16,28,18.00
2014,06,22,16,29,18.00
2014,06,22,16,30,17.90
2014,06,22,16,31,17.80
2014,06,22,16,32,17.70
2014,06,22,16,33,17.70
2014,06,22,16,34,17.60
2014,06,22,16,35,17.50
2014,06,22,16,36,17.50
2014,06,22,16,37,17.50
2014,06,22,16,38,17.50
2014,06,22,16,39,17.40
2014,06,22,16,40,17.30
2014,06,22,16,41,17.20
2014,06,22,16,42,17.10
2014,06,22,16,43,17.10
2014,06,22,16,44,17.00
2014,06,22,16,45,16.90
2014,06,22,16,46,16.90
2014,06,22,16,47,16.90
2014,06,22,16,48,16.90
2014,06,22,16,49,16.90
2014,06,22,16,50,16.90
2014,06,22,16,51,16.90
2014,06,22,16,52,17.00
2014,06,22,16,53,17.10
2014,06,22,16,54,17.10
2014,06,22,16,55,17.20
2014,06,22,16,56,17.30
2014,06,22,16,57,17.40
2014,06,22,16,58,17.50
2014,06,22,16,59,17.50
2014,06,22,17,00,17.50
2014,06,22,17,01,17.50
2014,06,22,17,02,17.50
2014,06,22,17,03,17.40
2014,06,22,17,04,17.50
2014,06,22,17,05,17.50
2014,06,22,17,06,17.50
2014,06,22,17,07,17.50
2014,06,22,17,08,17.50
2014,06,22,17,09,17.50
2014,06,22,17,10,17.60
2014,06,22,17,11,17.60
2014,06,22,17,12,17.70
2014,06,22,17,13,17.70
2014,06,22,17,14,17.80
2014,06,22,17,15,17.80
2014,06,22,17,16,17.80
2014,06,22,17,17,17.80
2014,06,22,17,18,17.80
2014,06,22,17,19,17.80
2014,06,22,17,20,17.80
2014,06,22,17,21,17.90
2014,06,22,17,22,17.90
2014,06,22,17,23,17.90
2014,06,22,17,24,17.80
2014,06,22,17,25,17.80
2014,06,22,17,26,17.80
2014,06,22,17,27,17.80
2014,06,22,17,28,17.90
2014,06,22,17,29,17.90
2014,06,22,17,30,18.00
2014,06,22,17,31,18.00
2014,06,22,17,32,18.10
2014,06,22,17,33,18.10
2014,06,22,17,34,18.10
2014,06,22,17,35,18.10
2014,06,22,17,36,18.10
2014,06,22,17,37,18.20